FW1850 Weather Reports


Display with metric or nautical units.
time (UTC)temp
F
wind
direction
speed
MPH
gust
MPH
rain 1hr
in
rain 24hr
in
rain mn
in
humidity
%
barometer
mb
20210920225126 73 45 1.0 2.0 0.00 0.00 0.00 75 1021.1
20210920224225 74 45 1.0 1.0 0.00 0.00 0.00 73 1021.2
20210920223228 74 67 1.0 2.0 0.00 0.00 0.00 72 1021.2
20210920222325 75 45 1.0 2.0 0.00 0.00 0.00 71 1021.3
20210920221424 75 73 1.0 3.0 0.00 0.00 0.00 70 1021.4
20210920220426 76 48 3.0 6.0 0.00 0.00 0.00 68 1021.4
20210920215426 76 67 3.0 5.0 0.00 0.00 0.00 68 1021.4
20210920214428 77 80 3.0 5.0 0.00 0.00 0.00 67 1021.5
20210920213428 77 70 3.0 4.0 0.00 0.00 0.00 64 1021.5
20210920212524 77 81 2.0 5.0 0.00 0.00 0.00 65 1021.5
20210920212425 77 60 4.0 6.0 0.00 0.00 0.00 64 1021.6
20210920211424 77 67 2.0 3.0 0.00 0.00 0.00 65 1021.6
20210920210425 77 22 4.0 6.0 0.00 0.00 0.00 64 1021.5
20210920205425 77 19 2.0 3.0 0.00 0.00 0.00 63 1021.5
20210920204525 77 26 3.0 5.0 0.00 0.00 0.00 64 1021.7
20210920203526 77 82 3.0 5.0 0.00 0.00 0.00 62 1021.6
20210920202542 78 95 5.0 7.0 0.00 0.00 0.00 62 1021.8
20210920201524 77 83 4.0 6.0 0.00 0.00 0.00 61 1021.9
20210920200524 77 51 5.0 7.0 0.00 0.00 0.00 61 1021.9
20210920200426 77 60 4.0 7.0 0.00 0.00 0.00 61 1021.9
20210920195425 78 47 3.0 5.0 0.00 0.00 0.00 60 1022.1
20210920194425 78 60 4.0 6.0 0.00 0.00 0.00 59 1022.0
20210920193426 78 64 4.0 5.0 0.00 0.00 0.00 60 1022.1
20210920192426 77 31 2.0 4.0 0.00 0.00 0.00 60 1022.0
20210920191426 77 101 3.0 5.0 0.00 0.00 0.00 59 1022.1
20210920190425 77 67 2.0 3.0 0.00 0.00 0.00 60 1022.2
20210920185425 77 68 5.0 8.0 0.00 0.00 0.00 61 1022.3
20210920184524 77 31 2.0 4.0 0.00 0.00 0.00 61 1022.3
20210920183525 76 56 2.0 5.0 0.00 0.00 0.00 64 1022.4
20210920182625 76 88 1.0 3.0 0.00 0.00 0.00 65 1022.4
20210920181724 76 38 4.0 6.0 0.00 0.00 0.00 64 1022.4
20210920180724 76 2 2.0 5.0 0.00 0.00 0.00 66 1022.5
20210920180625 76 7 4.0 5.0 0.00 0.00 0.00 66 1022.5
20210920175724 76 54 4.0 6.0 0.00 0.00 0.00 65 1022.7
20210920174725 76 45 2.0 4.0 0.00 0.00 0.00 65 1022.8
20210920173726 75 49 2.0 4.0 0.00 0.00 0.00 65 1022.6
20210920172823 75 45 2.0 5.0 0.00 0.00 0.00 62 1022.7
20210920171825 75 74 1.0 4.0 0.00 0.00 0.00 62 1022.9
20210920170825 74 95 4.0 6.0 0.00 0.00 0.00 64 1023.0
20210920165824 74 22 2.0 3.0 0.00 0.00 0.00 63 1023.1
20210920164924 74 79 1.0 3.0 0.00 0.00 0.00 63 1023.1
20210920164825 74 67 2.0 3.0 0.00 0.00 0.00 63 1023.1
20210920164725 74 67 2.0 4.0 0.00 0.00 0.00 64 1023.2
20210920163726 74 112 4.0 4.0 0.00 0.00 0.00 63 1023.1
20210920162726 74 128 0.0 3.0 0.00 0.00 0.00 62 1023.2
20210920161824 74 112 3.0 4.0 0.00 0.00 0.00 61 1023.2
20210920161727 74 107 3.0 4.0 0.00 0.00 0.00 61 1023.3
20210920160725 74 90 1.0 5.0 0.00 0.00 0.00 61 1023.2
20210920155725 74 67 2.0 3.0 0.00 0.00 0.00 60 1023.3
20210920154824 75 45 2.0 3.0 0.00 0.00 0.00 59 1023.4
20210920153923 75 19 1.0 4.0 0.00 0.00 0.00 59 1023.4
20210920152926 75 107 2.0 3.0 0.00 0.00 0.00 59 1023.5
20210920152827 75 131 2.0 3.0 0.00 0.00 0.00 60 1023.6
20210920151825 76 135 1.0 3.0 0.00 0.00 0.00 61 1023.6
20210920150924 76 208 0.0 0.0 0.00 0.00 0.00 64 1023.6
20210920145925 74 202 0.0 0.0 0.00 0.00 0.00 66 1023.6
20210920145024 73 128 1.0 3.0 0.00 0.00 0.00 65 1023.7
20210920144024 73 135 0.0 1.0 0.00 0.00 0.00 68 1023.8
20210920143026 71 114 1.0 3.0 0.00 0.00 0.00 69 1023.7
20210920142024 71 124 1.0 3.0 0.00 0.00 0.00 72 1023.7
20210920141025 69 112 0.0 1.0 0.00 0.00 0.00 75 1023.5
20210920140027 68 135 0.0 0.0 0.00 0.00 0.00 77 1023.6
20210920135124 68 135 0.0 0.0 0.00 0.00 0.00 80 1023.5
20210920134125 66 126 1.0 2.0 0.00 0.00 0.00 81 1023.6
20210920133126 64 112 1.0 2.0 0.00 0.00 0.00 83 1023.6
20210920132223 64 90 3.0 4.0 0.00 0.00 0.00 86 1023.5
20210920131226 62 22 0.0 0.0 0.00 0.00 0.00 91 1023.6
20210920130324 60 337 0.0 0.0 0.00 0.00 0.00 93 1023.5
20210920125424 60 337 0.0 0.0 0.00 0.00 0.00 95 1023.5
20210920124426 59 337 0.0 0.0 0.00 0.00 0.00 98 1023.7
20210920124326 59 337 0.0 0.0 0.00 0.00 0.00 98 1023.8
20210920123326 57 337 0.0 0.0 0.00 0.00 0.00 99 1023.8
20210920123226 57 337 0.0 0.0 0.00 0.00 0.00 99 1023.7
20210920122226 57 45 0.0 0.0 0.00 0.00 0.00 100 1023.9
20210920121225 55 45 0.0 0.0 0.00 0.00 0.00 100 1023.9
20210920120324 52 45 0.0 0.0 0.00 0.00 0.00 100 1023.9
20210920115325 51 45 0.0 0.0 0.00 0.00 0.00 99 1023.8
20210920114327 50 45 0.0 0.0 0.00 0.00 0.00 100 1023.6
20210920113425 48 45 0.0 0.0 0.00 0.00 0.00 99 1023.4
20210920112424 47 45 0.0 0.0 0.00 0.00 0.00 99 1023.1
20210920111425 46 45 0.0 0.0 0.00 0.00 0.00 99 1023.1
20210920110424 46 45 0.0 0.0 0.00 0.00 0.00 99 1023.1
20210920110324 46 45 0.0 0.0 0.00 0.00 0.00 99 1023.1
20210920105327 46 45 0.0 0.0 0.00 0.00 0.00 98 1023.1
20210920104326 46 45 0.0 0.0 0.00 0.00 0.00 99 1023.0
20210920103324 46 45 0.0 0.0 0.00 0.00 0.00 99 1022.9
20210920102326 46 45 0.0 0.0 0.00 0.00 0.00 99 1022.9
20210920101424 47 45 0.0 0.0 0.00 0.00 0.00 99 1022.9
20210920100425 47 45 0.0 0.0 0.00 0.00 0.00 99 1023.0
20210920095424 47 45 0.0 0.0 0.00 0.00 0.00 98 1023.1
20210920094426 47 45 0.0 0.0 0.00 0.00 0.00 99 1023.1
20210920093426 47 45 0.0 0.0 0.00 0.00 0.00 98 1023.2
20210920092424 47 45 0.0 0.0 0.00 0.00 0.00 99 1023.1
20210920091424 47 45 0.0 0.0 0.00 0.00 0.00 98 1023.0
20210920090424 47 45 0.0 0.0 0.00 0.00 0.00 97 1023.0
20210920085425 47 45 0.0 0.0 0.00 0.00 0.00 98 1023.0
20210920084425 47 45 0.0 0.0 0.00 0.00 0.00 98 1023.0
20210920083524 47 45 0.0 0.0 0.00 0.00 0.00 98 1023.1
20210920083424 47 45 0.0 0.0 0.00 0.00 0.00 98 1023.1
20210920083327 47 45 0.0 0.0 0.00 0.00 0.00 98 1023.1
20210920082424 47 45 0.0 0.0 0.00 0.00 0.00 98 1023.1
20210920081425 47 45 0.0 0.0 0.00 0.00 0.00 98 1023.0
20210920080426 47 45 0.0 0.0 0.00 0.00 0.00 97 1023.0
20210920075425 47 45 0.0 0.0 0.00 0.00 0.00 97 1023.0
20210920074426 48 45 0.0 0.0 0.00 0.00 0.00 98 1023.2
20210920073424 48 45 0.0 0.0 0.00 0.00 0.00 97 1023.4
20210920073326 48 45 0.0 0.0 0.00 0.00 0.00 97 1023.3
20210920072424 48 45 0.0 0.0 0.00 0.00 0.00 98 1023.3
20210920071428 48 45 0.0 0.0 0.00 0.00 0.00 97 1023.3
20210920071326 48 45 0.0 0.0 0.00 0.00 0.00 97 1023.4
20210920070325 48 45 0.0 0.0 0.00 0.00 0.00 97 1023.5
20210920065424 48 45 0.0 0.0 0.00 0.00 0.00 97 1023.5
20210920065325 48 45 0.0 0.0 0.00 0.00 0.00 97 1023.6
20210920064325 48 45 0.0 0.0 0.00 0.00 0.00 97 1023.6
20210920063326 48 45 0.0 0.0 0.00 0.00 0.00 97 1023.9
20210920062325 49 45 0.0 0.0 0.00 0.00 0.00 95 1023.8
20210920061323 49 45 0.0 1.0 0.00 0.00 0.00 95 1023.8
20210920060326 49 45 0.0 0.0 0.00 0.00 0.00 95 1023.8
20210920060226 49 45 0.0 0.0 0.00 0.00 0.00 95 1023.8
20210920055324 49 45 0.0 0.0 0.00 0.00 0.00 95 1024.0
20210920054326 50 45 0.0 0.0 0.00 0.00 0.00 95 1023.9
20210920053424 50 45 0.0 0.0 0.00 0.00 0.00 93 1023.9
20210920052423 50 45 0.0 0.0 0.00 0.00 0.00 94 1023.9
20210920051426 50 45 0.0 0.0 0.00 0.00 0.00 94 1023.8
20210920050425 51 45 0.0 0.0 0.00 0.00 0.00 93 1023.8
20210920045425 51 45 0.0 0.0 0.00 0.00 0.00 93 1023.8
20210920044524 52 45 0.0 0.0 0.00 0.00 0.00 93 1023.9
20210920043525 52 45 0.0 1.0 0.00 0.00 0.00 95 1023.7
20210920043424 51 45 0.0 1.0 0.00 0.00 0.00 96 1023.7
20210920042424 51 45 1.0 2.0 0.00 0.00 0.00 96 1023.6
20210920041424 50 45 1.0 2.0 0.00 0.00 0.00 95 1023.9
20210920040425 49 45 0.0 1.0 0.00 0.00 0.00 95 1024.1
20210920035436 50 45 0.0 0.0 0.00 0.00 0.00 94 1024.1
20210920034533 50 45 0.0 0.0 0.00 0.00 0.00 94 1024.1
20210920034435 50 45 0.0 0.0 0.00 0.00 0.00 95 1024.1
20210920033534 51 45 1.0 2.0 0.00 0.00 0.00 93 1024.0
20210920032534 51 45 0.0 0.0 0.00 0.00 0.00 93 1024.1
20210920031536 51 45 0.0 0.0 0.00 0.00 0.00 93 1024.1
20210920030633 51 45 0.0 0.0 0.00 0.00 0.00 93 1024.0
20210920025636 52 45 0.0 0.0 0.00 0.00 0.00 92 1024.1
20210920024634 53 45 1.0 1.0 0.00 0.00 0.00 91 1024.2
20210920023636 53 45 0.0 0.0 0.00 0.00 0.00 92 1024.2
20210920022635 54 45 1.0 1.0 0.00 0.00 0.00 92 1024.2
20210920021634 54 45 0.0 1.0 0.00 0.00 0.00 91 1024.2
20210920020635 54 45 1.0 2.0 0.00 0.00 0.00 92 1024.2
20210920015636 54 45 1.0 1.0 0.00 0.00 0.00 90 1024.2
20210920014733 54 45 1.0 2.0 0.00 0.00 0.00 91 1024.2
20210920013737 55 45 1.0 1.0 0.00 0.00 0.00 89 1024.2
20210920012735 55 45 1.0 1.0 0.00 0.00 0.00 90 1024.2
20210920011734 55 45 0.0 1.0 0.00 0.00 0.00 88 1024.3
20210920010737 55 45 0.0 0.0 0.00 0.00 0.00 88 1024.2
20210920005835 55 45 0.0 0.0 0.00 0.00 0.00 88 1024.1
20210920004836 55 45 0.0 0.0 0.00 0.00 0.00 89 1024.0
20210920004734 55 45 0.0 0.0 0.00 0.00 0.00 89 1023.9
20210920003737 55 45 0.0 0.0 0.00 0.00 0.00 89 1023.9
20210920002833 55 45 0.0 0.0 0.00 0.00 0.00 87 1024.0
20210920001834 56 45 0.0 0.0 0.00 0.00 0.00 86 1023.9
20210920000834 57 45 0.0 1.0 0.00 0.00 0.00 86 1024.0
20210919235836 57 45 0.0 0.0 0.00 0.00 0.00 85 1023.9
20210919234837 57 45 0.0 0.0 0.00 0.00 0.00 82 1023.9
20210919233833 59 45 1.0 1.0 0.00 0.00 0.00 79 1023.9
20210919232836 60 45 0.0 0.0 0.00 0.00 0.00 74 1023.8
20210919231934 61 45 0.0 0.0 0.00 0.00 0.00 72 1023.9
20210919231835 61 45 0.0 0.0 0.00 0.00 0.00 72 1024.0
20210919230934 62 45 1.0 1.0 0.00 0.00 0.00 71 1023.9
20210919225936 63 45 1.0 2.0 0.00 0.00 0.00 69 1023.9